Waarnemingen

Advertentie
Mijn weer
Ile Rousse, Frankrijk (7753): temperatuur & dauwpunt: 14.10.2018 04:00:00 - 20.10.2018 04:00:00 (CEST)Ile Rousse, Frankrijk (7753): windsnelheid & windstoten: 14.10.2018 04:00:00 - 20.10.2018 04:00:00 (CEST)Ile Rousse, Frankrijk (7753): windrichting: 14.10.2018 04:00:00 - 20.10.2018 04:00:00 (CEST)Ile Rousse, Frankrijk (7753): luchtdruk: 14.10.2018 04:00:00 - 20.10.2018 04:00:00 (CEST)Ile Rousse, Frankrijk (7753): zicht: 14.10.2018 04:00:00 - 20.10.2018 04:00:00 (CEST)Ile Rousse, Frankrijk (7753): neerslag: 14.10.2018 04:00:00 - 20.10.2018 04:00:00 (CEST)
Datum & Tijd tt [°C] td [°C] ff [km/u] ff [kn] fx [km/u] fx [kn] dd ppp [hPa] vv [km] rr [mm]
20.10.2018 04:00:00 19,3 15,6 11 6 13 7 O 1018,9 - 0,0
20.10.2018 03:00:00 19,2 15,7 7 4 8 4 O 1019,2 - 0,0
20.10.2018 02:00:00 19,6 16,1 3 2 7 4 NNO 1018,9 - 0,0
20.10.2018 01:00:00 19,6 16,4 5 3 7 4 OZO 1018,8 - 0,0
20.10.2018 00:00:00 20,3 16,5 5 3 7 4 NNO 1018,5 - 0,0
19.10.2018 23:00:00 20,0 14,8 3 2 7 4 ONO 1018,3 - 0,0
19.10.2018 22:00:00 20,8 14,7 5 3 12 6 W 1018,0 - 0,0
19.10.2018 21:00:00 20,6 15,6 6 3 17 9 WNW 1017,6 - 0,0
19.10.2018 20:00:00 20,8 15,8 11 6 18 10 WZW 1016,9 18 0,0
19.10.2018 19:00:00 21,7 15,8 9 5 11 6 ZW 1016,2 - 0,0
19.10.2018 18:00:00 21,5 17,5 4 2 10 6 Z 1015,5 - 0,0
19.10.2018 17:00:00 21,3 17,7 8 4 13 7 NO 1015,3 - 0,0
19.10.2018 16:00:00 21,3 16,9 9 5 22 12 NNO 1015,6 - 0,0
19.10.2018 15:00:00 21,3 15,4 16 9 29 16 NO 1015,5 - 0,0
19.10.2018 14:00:00 21,5 16,7 17 9 31 17 NNO 1015,4 18 0,0
19.10.2018 13:00:00 21,4 16,6 21 12 38 20 NO 1015,5 - 0,0
19.10.2018 12:00:00 21,4 16,8 18 10 32 17 NO 1015,5 18 0,0
19.10.2018 11:00:00 21,4 14,3 2 1 10 5 W 1015,3 - 0,0
19.10.2018 10:00:00 20,4 14,3 5 3 10 5 ONO 1015,1 - 0,0
19.10.2018 09:00:00 18,8 13,2 5 3 9 5 W 1014,7 - 0,0
19.10.2018 08:00:00 19,4 12,4 4 2 21 12 ONO 1013,9 18 0,0
19.10.2018 07:00:00 18,4 12,6 10 5 16 9 ONO 1013,5 - 0,0
19.10.2018 06:00:00 18,9 14,0 4 2 10 5 WZW 1013,6 - 0,0
19.10.2018 05:00:00 19,3 14,1 5 3 7 4 W 1013,4 - 0,0
19.10.2018 04:00:00 19,5 13,9 4 2 11 6 WNW 1013,4 - 0,0
19.10.2018 03:00:00 20,3 13,0 2 1 8 5 NNW 1013,4 - 0,0
19.10.2018 02:00:00 20,2 13,2 5 3 10 5 WZW 1013,2 - 0,0
19.10.2018 01:00:00 21,0 12,4 7 4 15 8 WZW 1013,2 - 0,0
19.10.2018 00:00:00 21,3 12,2 13 7 40 22 OZO 1013,0 - 0,0
18.10.2018 23:00:00 20,7 13,4 29 15 61 33 O 1012,3 - 0,0
18.10.2018 22:00:00 20,9 14,5 47 25 61 33 O 1011,0 - 0,0
18.10.2018 21:00:00 21,0 14,4 40 22 53 29 O 1011,0 - 0,0
18.10.2018 20:00:00 21,2 14,8 39 21 51 27 O 1010,7 15 0,0
18.10.2018 19:00:00 21,6 15,2 40 22 67 36 ONO 1010,1 - 0,0
18.10.2018 18:00:00 23,1 14,6 45 25 62 34 O 1009,2 - 0,0
18.10.2018 17:00:00 23,9 14,6 43 23 70 38 O 1009,1 15 0,0
18.10.2018 16:00:00 24,1 14,5 55 30 71 38 O 1008,8 - 0,0
18.10.2018 15:00:00 24,5 15,1 41 22 63 34 O 1009,5 - 0,0
18.10.2018 14:00:00 24,1 14,8 40 22 57 31 O 1010,4 15 0,0
18.10.2018 13:00:00 23,6 15,1 37 20 61 33 O 1010,8 - 0,0
18.10.2018 12:00:00 22,6 14,2 45 24 68 37 O 1010,9 - 0,0
18.10.2018 11:00:00 22,3 13,9 36 20 55 30 O 1011,0 - 0,0
18.10.2018 10:00:00 21,1 13,3 26 14 45 24 OZO 1011,5 - 0,0
18.10.2018 09:00:00 19,9 13,4 9 5 26 14 OZO 1011,3 - 0,0
18.10.2018 08:00:00 19,9 12,6 13 7 22 12 OZO 1010,9 18 0,0
18.10.2018 07:00:00 18,8 12,8 7 4 24 13 ZW 1010,9 - 0,0
18.10.2018 06:00:00 18,6 13,0 18 10 26 14 O 1010,9 - 0,0
18.10.2018 05:00:00 18,7 13,1 16 9 22 12 O 1010,8 - 0,0
18.10.2018 04:00:00 18,8 13,6 14 7 27 15 O 1011,3 - 0,0
18.10.2018 03:00:00 18,8 14,3 16 9 35 19 O 1012,0 - 0,0
18.10.2018 02:00:00 18,5 14,6 24 13 48 26 O 1012,4 - 0,0
18.10.2018 01:00:00 18,9 15,8 35 19 48 26 ONO 1012,8 - 0,0
18.10.2018 00:00:00 19,2 14,9 29 16 55 30 O 1012,9 - 0,0
17.10.2018 23:00:00 19,6 14,8 39 21 56 30 O 1013,0 - 0,0
17.10.2018 22:00:00 20,1 14,2 37 20 53 28 O 1012,4 - 0,0
17.10.2018 21:00:00 19,9 14,7 20 11 45 24 OZO 1012,7 - 0,0
17.10.2018 20:00:00 19,6 15,0 13 7 42 23 ZO 1012,8 15 0,0
17.10.2018 19:00:00 18,7 15,9 21 11 37 20 O 1012,4 - 0,2
17.10.2018 18:00:00 19,5 16,7 2 1 14 8 WZW 1012,4 - 0,0
17.10.2018 17:00:00 19,8 17,0 6 4 17 9 NNW 1012,8 15 0,0
17.10.2018 16:00:00 20,3 16,5 12 6 44 24 ZO 1012,8 - 0,0
17.10.2018 15:00:00 20,4 17,4 32 17 42 23 O 1012,0 - 0,0
17.10.2018 14:00:00 19,4 17,4 32 18 40 22 ONO 1012,4 15 0,8
17.10.2018 13:00:00 19,0 16,8 33 18 54 29 ONO 1013,5 - 0,6
17.10.2018 12:00:00 18,6 17,3 43 23 55 30 ONO 1013,4 - 0,0
17.10.2018 11:00:00 17,9 16,2 38 21 49 26 O 1013,5 12 0,4
17.10.2018 10:00:00 17,8 16,1 30 16 47 25 ONO 1013,9 - 1,8
17.10.2018 09:00:00 17,4 15,7 36 20 46 25 ONO 1013,4 - 2,4
17.10.2018 08:00:00 18,8 15,1 29 16 42 23 O 1013,5 - 0,2
17.10.2018 07:00:00 19,1 13,9 25 14 34 19 OZO 1013,6 - 0,0
17.10.2018 06:00:00 17,4 14,5 11 6 19 10 O 1014,0 - 0,0
17.10.2018 05:00:00 17,4 14,7 9 5 21 11 ONO 1014,1 - 0,0
17.10.2018 04:00:00 17,0 14,1 15 8 19 10 ONO 1014,6 - 0,0
17.10.2018 03:00:00 18,0 15,6 5 3 16 8 N 1015,2 - 0,0
17.10.2018 02:00:00 17,9 16,4 7 4 9 5 W 1015,4 - 0,0
17.10.2018 01:00:00 18,1 15,7 2 1 12 6 WZW 1015,3 - 0,0
17.10.2018 00:00:00 18,1 15,9 5 3 9 5 ONO 1015,7 - 0,0
16.10.2018 23:00:00 18,2 15,8 3 1 22 12 NO 1016,1 - 0,0
16.10.2018 22:00:00 18,3 15,9 13 7 24 13 O 1016,3 - 0,0
16.10.2018 21:00:00 18,7 17,0 20 11 43 23 O 1015,8 - 0,0
16.10.2018 20:00:00 18,7 16,7 37 20 56 30 NO 1015,5 20 0,0
16.10.2018 19:00:00 18,4 16,6 38 20 51 28 ONO 1015,0 - 0,0
16.10.2018 18:00:00 19,0 17,1 33 18 49 26 ONO 1015,1 - 0,0
16.10.2018 17:00:00 18,5 17,3 24 13 49 27 ONO 1015,2 - 0,4
16.10.2018 16:00:00 18,0 16,8 39 21 52 28 NO 1015,7 - 1,8
16.10.2018 15:00:00 18,1 17,3 38 20 51 28 NO 1015,8 - 0,0
16.10.2018 14:00:00 18,6 17,6 31 17 42 23 NO 1015,5 15 0,0
16.10.2018 13:00:00 18,3 17,1 16 9 42 23 ONO 1016,3 - 0,6
16.10.2018 12:00:00 18,2 16,5 35 19 50 27 NO 1015,8 - 0,0
16.10.2018 11:00:00 17,9 16,8 30 16 46 25 ONO 1015,6 - 0,4
16.10.2018 10:00:00 17,0 15,5 18 10 24 13 ONO 1015,7 - 0,2
16.10.2018 09:00:00 16,8 15,1 10 6 13 7 O 1015,9 - 2,6
16.10.2018 08:00:00 17,5 14,0 10 5 13 7 O 1015,6 10 3,0
16.10.2018 07:00:00 19,2 13,6 5 3 19 10 NW 1014,9 - 0,0
16.10.2018 06:00:00 19,1 12,1 8 4 18 10 ZW 1014,4 - 0,0
16.10.2018 05:00:00 19,1 12,4 15 8 22 12 O 1014,1 - 0,0
16.10.2018 04:00:00 19,3 11,6 13 7 21 12 O 1014,3 - 0,0
16.10.2018 03:00:00 19,6 13,1 18 10 24 13 O 1014,8 - 0,0
16.10.2018 02:00:00 19,8 11,6 7 4 22 12 OZO 1015,2 - 0,0
16.10.2018 01:00:00 20,1 11,8 4 2 15 8 OZO 1015,2 - 0,0
16.10.2018 00:00:00 20,2 13,4 8 4 18 10 NW 1015,3 - 0,0
15.10.2018 23:00:00 20,6 11,0 8 5 20 11 ZZW 1015,1 - 0,0
15.10.2018 22:00:00 20,8 12,5 10 5 18 10 OZO 1014,9 - 0,0
15.10.2018 21:00:00 20,3 14,6 5 3 13 7 W 1014,5 - 0,0
15.10.2018 20:00:00 20,2 11,4 8 4 13 7 O 1014,4 18 0,0
15.10.2018 19:00:00 20,7 13,9 5 3 13 7 W 1013,9 - 0,0
15.10.2018 18:00:00 21,8 14,9 5 3 10 6 NNO 1013,3 18 0,0
15.10.2018 17:00:00 22,8 12,7 6 3 15 8 WZW 1012,8 - 0,0
15.10.2018 16:00:00 22,2 12,4 8 4 13 7 WZW 1012,5 - 0,0
15.10.2018 15:00:00 22,2 12,2 6 4 21 11 NNO 1012,7 - 0,0
15.10.2018 14:00:00 22,9 14,5 15 8 22 12 W 1013,4 20 0,0
15.10.2018 13:00:00 22,5 15,6 14 7 23 12 W 1013,5 - 0,0
15.10.2018 12:00:00 23,0 12,0 11 6 31 17 WZW 1013,6 - 0,0
15.10.2018 11:00:00 22,3 10,4 6 3 52 28 ZW 1013,4 - 0,0
15.10.2018 10:00:00 21,2 10,1 28 15 46 25 O 1012,7 - 0,0
15.10.2018 09:00:00 19,9 8,6 10 5 25 13 ZO 1013,1 - 0,0
15.10.2018 08:00:00 18,5 8,2 20 11 28 15 O 1013,0 - 0,0
15.10.2018 07:00:00 18,8 9,3 10 5 14 7 O 1013,2 - 0,0
15.10.2018 06:00:00 18,8 10,1 3 2 32 18 ZZO 1013,0 - 0,0
15.10.2018 05:00:00 19,4 7,8 15 8 31 17 OZO 1012,8 - 0,0
15.10.2018 04:00:00 19,0 7,7 16 9 28 15 ZZO 1013,2 - 0,0
15.10.2018 03:00:00 19,8 7,5 13 7 31 17 ZZO 1013,9 - 0,0
15.10.2018 02:00:00 19,1 12,1 3 1 10 5 WNW 1014,4 - 0,0
15.10.2018 01:00:00 19,2 11,5 5 3 9 5 ZW 1014,5 - 0,0
15.10.2018 00:00:00 20,2 8,5 5 3 10 5 ZO 1014,7 - 0,0
14.10.2018 23:00:00 20,1 9,9 5 3 9 5 OZO 1014,9 - 0,0
14.10.2018 22:00:00 20,2 12,2 5 3 11 6 NO 1014,8 - 0,0
14.10.2018 21:00:00 20,2 11,9 4 2 12 6 WNW 1014,5 - 0,0
14.10.2018 20:00:00 19,7 13,6 10 5 18 10 ZW 1014,3 - 0,0
14.10.2018 19:00:00 20,7 13,6 8 4 11 6 ONO 1014,2 - 0,0
14.10.2018 18:00:00 22,3 14,4 5 3 17 9 W 1014,3 - 0,0
14.10.2018 17:00:00 23,5 11,9 11 6 24 13 ZW 1014,5 - 0,0
14.10.2018 16:00:00 22,2 14,8 14 8 23 12 W 1014,8 - 0,0
14.10.2018 15:00:00 22,3 14,7 14 7 21 11 W 1015,1 - 0,0
14.10.2018 14:00:00 22,4 15,5 14 7 23 12 W 1015,8 18 0,0
14.10.2018 13:00:00 21,4 15,0 16 8 22 12 W 1016,6 - 0,0
14.10.2018 12:00:00 21,1 15,9 6 3 11 6 WNW 1016,7 - 0,0
14.10.2018 11:00:00 19,8 15,4 5 3 9 5 W 1017,0 18 0,0
14.10.2018 10:00:00 19,1 15,2 2 1 6 3 O 1017,0 - 0,0
14.10.2018 09:00:00 18,5 14,8 0 0 6 4 N 1017,2 - 0,0
14.10.2018 08:00:00 18,5 14,2 4 2 10 6 W 1017,1 18 0,0
14.10.2018 07:00:00 18,2 14,9 7 4 11 6 WZW 1017,3 - 0,0
14.10.2018 06:00:00 18,7 15,0 8 4 10 5 W 1017,6 - 0,0
14.10.2018 05:00:00 18,9 13,5 4 2 8 4 W 1017,7 18 0,0
14.10.2018 04:00:00 19,3 14,5 7 4 10 5 ZO 1018,0 - 0,0

tt = temperatuur
td = dauwpunt
ff = windsnelheid
fx = windstoten
dd = windrichting
ppp = luchtdruk
vv = zicht
rr = neerslag

Weerstations in de omgeving